Weather History for KFAY - June, 2013

Change the Weather History Date:

Tuesday, June 11, 2013

  Actual Average Record
Temperature  
Mean Temperature 80 °F 78 °F  
Max Temperature 89 °F 88 °F 102 °F (1926)
Min Temperature 70 °F 67 °F 49 °F (1972)
Degree Days  
Heating Degree Days 0 0  
Month to date heating degree days 0 0  
Since 1 June heating degree days 0 0  
Since 1 July heating degree days 2762 2732  
Cooling Degree Days 15 12  
Month to date cooling degree days 138 124  
Year to date cooling degree days 387 408  
Since 1 June cooling degree days 138 124  
Growing Degree Days 30 (Base 50)    
Moisture  
Dew Point 68 °F    
Average Humidity 71    
Maximum Humidity 100    
Minimum Humidity 41    
Precipitation  
Precipitation 0.00 in 0.13 in 3.04 in (2001)
Month to date precipitation 5.62 1.62  
Year to date precipitation 18.96 17.29  
Sea Level Pressure  
Sea Level Pressure 29.94 in    
Wind  
Wind Speed 9 mph (WSW)    
Max Wind Speed 16 mph    
Max Gust Speed 23 mph    
Visibility 10 miles    
Events      
T = Trace of Precipitation, MM = Missing Value Source: NWS Daily Summary

Daily Weather History Graph

Daily Weather History Graph

Search for Another Location

Airport or City:

Trip Planner

Search our weather history database for the weather conditions in past years. The results will help you decide how hot, cold, wet, or windy it might be!

Date:

Astronomy

Jun. 11, 2013 Rise Set
Actual Time 6:01 AM EDT 8:29 PM EDT
Civil Twilight 5:31 AM EDT 8:59 PM EDT
Nautical Twilight 4:54 AM EDT 9:35 PM EDT
Astronomical Twilight 4:14 AM EDT 10:16 PM EDT
Moon 8:37 AM EDT (6/11) 10:37 PM EDT (6/11)
Length of Visible Light 15h 27m
Length of Day
14h 28m
Waxing Crescent, 8% of the Moon is Illuminated
Jun 11
Waxing Crescent
Jun 16
First Quarter
Jun 23
Full
Jun 30
Last Quarter
Jul 8
New

Hourly Weather History & Observations

Time (EDT) Temp. Heat Index Dew Point Humidity Pressure Visibility Wind Dir Wind Speed Gust Speed Precip Events Conditions
12:53 AM 72.0 °F - 70.0 °F 93% 29.95 in 10.0 mi South 6.9 mph - N/A   Mostly Cloudy
1:53 AM 72.0 °F - 71.1 °F 97% 29.95 in 10.0 mi SW 11.5 mph 18.4 mph N/A   Overcast
2:25 AM 71.6 °F - 69.8 °F 94% 29.96 in 10.0 mi SW 9.2 mph - N/A   Overcast
2:32 AM 71.6 °F - 69.8 °F 94% 29.95 in 10.0 mi SW 10.4 mph - N/A   Overcast
2:44 AM 71.6 °F - 69.8 °F 94% 29.95 in 10.0 mi SW 10.4 mph - N/A   Overcast
2:53 AM 72.0 °F - 70.0 °F 93% 29.94 in 10.0 mi SW 9.2 mph - N/A   Overcast
3:42 AM 71.6 °F - 69.8 °F 94% 29.95 in 10.0 mi SW 10.4 mph - N/A   Overcast
3:53 AM 72.0 °F - 70.0 °F 93% 29.93 in 10.0 mi SSW 9.2 mph - N/A   Overcast
4:31 AM 71.6 °F - 69.8 °F 94% 29.95 in 10.0 mi SW 10.4 mph - N/A   Overcast
4:53 AM 72.0 °F - 70.0 °F 93% 29.94 in 10.0 mi SW 10.4 mph - N/A   Mostly Cloudy
5:06 AM 71.6 °F - 69.8 °F 94% 29.95 in 10.0 mi SW 11.5 mph - N/A   Mostly Cloudy
5:21 AM 71.6 °F - 69.8 °F 94% 29.95 in 10.0 mi SW 8.1 mph - N/A   Scattered Clouds
5:53 AM 71.1 °F - 69.1 °F 93% 29.95 in 10.0 mi WSW 6.9 mph - N/A   Scattered Clouds
6:03 AM 71.6 °F - 69.8 °F 94% 29.97 in 10.0 mi WSW 6.9 mph - N/A   Mostly Cloudy
6:37 AM 71.6 °F - 69.8 °F 94% 29.97 in 10.0 mi SW 6.9 mph - N/A   Scattered Clouds
6:53 AM 71.1 °F - 69.1 °F 93% 29.96 in 10.0 mi SW 8.1 mph - N/A   Scattered Clouds
7:01 AM 71.6 °F - 69.8 °F 94% 29.97 in 10.0 mi SSW 6.9 mph - N/A   Mostly Cloudy
7:53 AM 72.0 °F - 69.1 °F 91% 29.96 in 10.0 mi SSW 10.4 mph - N/A   Mostly Cloudy
8:25 AM 71.6 °F - 69.8 °F 94% 29.97 in 8.0 mi SW 12.7 mph - N/A   Overcast
8:53 AM 73.0 °F - 70.0 °F 90% 29.95 in 8.0 mi SSW 11.5 mph - N/A   Unknown
8:56 AM 73.4 °F - 69.8 °F 88% 29.97 in 8.0 mi SSW 11.5 mph - N/A   Mostly Cloudy
9:30 AM 75.2 °F - 69.8 °F 83% 29.97 in 9.0 mi WSW 11.5 mph - N/A   Mostly Cloudy
9:49 AM 75.2 °F - 69.8 °F 83% 29.97 in 10.0 mi SW 13.8 mph 20.7 mph N/A   Overcast
9:53 AM 75.9 °F - 70.0 °F 82% 29.96 in 10.0 mi SW 16.1 mph 20.7 mph N/A   Overcast
10:53 AM 78.1 °F - 70.0 °F 76% 29.95 in 10.0 mi WSW 10.4 mph - N/A   Overcast
11:53 AM 82.0 °F 85.5 °F 69.1 °F 65% 29.95 in 10.0 mi West 13.8 mph - N/A   Scattered Clouds
12:53 PM 84.9 °F 87.1 °F 66.0 °F 53% 29.94 in 10.0 mi WNW 6.9 mph - N/A   Partly Cloudy
1:53 PM 87.1 °F 88.9 °F 64.9 °F 48% 29.91 in 10.0 mi WNW 11.5 mph - N/A   Partly Cloudy
2:53 PM 88.0 °F 89.3 °F 64.0 °F 45% 29.90 in 10.0 mi WNW 9.2 mph - N/A   Scattered Clouds
3:53 PM 89.1 °F 90.0 °F 63.0 °F 42% 29.90 in 10.0 mi West 10.4 mph 17.3 mph N/A   Scattered Clouds
4:53 PM 89.1 °F 90.0 °F 63.0 °F 42% 29.89 in 10.0 mi NW 10.4 mph - N/A   Mostly Cloudy
5:53 PM 88.0 °F 88.7 °F 63.0 °F 43% 29.89 in 10.0 mi WNW 11.5 mph - N/A   Partly Cloudy
6:53 PM 86.0 °F 86.1 °F 61.0 °F 43% 29.89 in 10.0 mi WNW 8.1 mph - N/A   Clear
7:53 PM 84.0 °F 84.4 °F 61.0 °F 46% 29.90 in 10.0 mi WNW 6.9 mph - N/A   Clear
8:53 PM 80.1 °F 81.5 °F 63.0 °F 56% 29.91 in 10.0 mi West 3.5 mph - N/A   Clear
9:53 PM 75.0 °F - 66.0 °F 73% 29.93 in 10.0 mi WSW 4.6 mph - N/A   Clear
10:53 PM 75.0 °F - 64.9 °F 71% 29.94 in 10.0 mi West 4.6 mph - N/A   Clear
11:53 PM 72.0 °F - 66.0 °F 81% 29.95 in 10.0 mi SW 3.5 mph - N/A   Clear